TimeEDT,TemperatureF,Dew PointF,Humidity,Sea Level PressureIn,VisibilityMPH,Wind Direction,Wind SpeedMPH,Gust SpeedMPH,PrecipitationIn,Events,Conditions,WindDirDegrees,DateUTC
12:15 AM,56.3,56.3,100,30.13,7.0,Calm,Calm,-,N/A,,Clear,0,2013-10-01 04:15:00
12:35 AM,55.4,55.4,100,30.13,2.0,Calm,Calm,-,N/A,,Clear,0,2013-10-01 04:35:00
12:55 AM,55.2,55.2,100,30.13,7.0,Calm,Calm,-,N/A,,Clear,0,2013-10-01 04:55:00
1:15 AM,54.9,54.9,100,30.13,5.0,Calm,Calm,-,N/A,,Clear,0,2013-10-01 05:15:00
1:35 AM,53.8,53.8,100,30.13,5.0,Calm,Calm,-,N/A,,Clear,0,2013-10-01 05:35:00
1:55 AM,53.6,53.6,100,30.13,7.0,Calm,Calm,-,N/A,,Clear,0,2013-10-01 05:55:00
2:15 AM,53.6,53.6,100,30.13,7.0,Calm,Calm,-,N/A,,Clear,0,2013-10-01 06:15:00
2:35 AM,54.1,54.1,100,30.13,10.0,Calm,Calm,-,N/A,,Clear,0,2013-10-01 06:35:00
2:55 AM,53.1,53.1,100,30.13,4.0,Calm,Calm,-,N/A,,Clear,0,2013-10-01 06:55:00
3:15 AM,52.7,52.7,100,30.13,5.0,Calm,Calm,-,N/A,,Clear,0,2013-10-01 07:15:00
3:35 AM,52.0,52.0,100,30.13,10.0,Calm,Calm,-,N/A,,Clear,0,2013-10-01 07:35:00
3:55 AM,51.8,51.8,100,30.13,10.0,Calm,Calm,-,N/A,,Clear,0,2013-10-01 07:55:00
4:15 AM,51.8,51.8,100,30.13,7.0,Calm,Calm,-,N/A,,Clear,0,2013-10-01 08:15:00
4:35 AM,50.9,50.9,100,30.13,5.0,Calm,Calm,-,N/A,,Clear,0,2013-10-01 08:35:00
4:55 AM,50.9,50.9,100,30.13,5.0,Calm,Calm,-,N/A,,Clear,0,2013-10-01 08:55:00
5:15 AM,50.7,50.7,100,30.14,7.0,Calm,Calm,-,N/A,,Clear,0,2013-10-01 09:15:00
5:35 AM,50.4,50.4,100,30.14,7.0,Calm,Calm,-,N/A,,Clear,0,2013-10-01 09:35:00
5:55 AM,50.4,50.4,100,30.15,7.0,Calm,Calm,-,N/A,,Clear,0,2013-10-01 09:55:00
6:15 AM,50.4,50.4,100,30.15,7.0,Calm,Calm,-,N/A,,Clear,0,2013-10-01 10:15:00
6:35 AM,50.2,50.2,100,30.16,10.0,Calm,Calm,-,N/A,,Clear,0,2013-10-01 10:35:00
6:55 AM,50.4,50.4,100,30.17,5.0,Calm,Calm,-,N/A,,Clear,0,2013-10-01 10:55:00
7:15 AM,49.5,49.5,100,30.18,5.0,Calm,Calm,-,N/A,,Clear,0,2013-10-01 11:15:00
7:35 AM,49.3,49.3,100,30.18,5.0,Calm,Calm,-,N/A,,Clear,0,2013-10-01 11:35:00
7:55 AM,49.8,49.8,100,30.19,7.0,Calm,Calm,-,N/A,,Clear,0,2013-10-01 11:55:00
8:15 AM,51.1,51.1,100,30.19,10.0,Calm,Calm,-,N/A,,Clear,0,2013-10-01 12:15:00
8:35 AM,53.8,53.8,100,30.20,10.0,Calm,Calm,-,N/A,,Clear,0,2013-10-01 12:35:00
8:55 AM,56.5,56.5,100,30.20,10.0,Calm,Calm,-,N/A,,Clear,0,2013-10-01 12:55:00
9:15 AM,60.1,60.1,100,30.21,10.0,Calm,Calm,-,N/A,,Clear,0,2013-10-01 13:15:00
9:35 AM,62.6,61.2,95,30.21,10.0,Calm,Calm,-,N/A,,Clear,0,2013-10-01 13:35:00
9:55 AM,64.4,61.5,90,30.22,10.0,Calm,Calm,-,N/A,,Clear,0,2013-10-01 13:55:00
10:15 AM,66.4,62.2,86,30.22,10.0,Calm,Calm,-,N/A,,Clear,0,2013-10-01 14:15:00
10:35 AM,68.5,62.8,82,30.22,10.0,NW,3.5,-,N/A,,Clear,310,2013-10-01 14:35:00
10:55 AM,70.2,62.4,76,30.22,10.0,WNW,4.6,-,N/A,,Clear,290,2013-10-01 14:55:00
11:15 AM,71.6,62.1,72,30.22,10.0,Calm,Calm,-,N/A,,Clear,0,2013-10-01 15:15:00
11:35 AM,73.4,62.2,68,30.21,10.0,North,4.6,-,N/A,,Clear,360,2013-10-01 15:35:00
11:55 AM,73.6,61.7,66,30.21,10.0,NNW,3.5,-,N/A,,Clear,330,2013-10-01 15:55:00
12:15 PM,74.5,60.8,62,30.20,10.0,West,4.6,-,N/A,,Clear,280,2013-10-01 16:15:00
12:35 PM,75.7,60.8,60,30.19,10.0,Calm,Calm,-,N/A,,Clear,0,2013-10-01 16:35:00
12:55 PM,75.9,60.8,59,30.19,10.0,ENE,3.5,-,N/A,,Clear,70,2013-10-01 16:55:00
1:15 PM,76.1,60.1,57,30.18,10.0,Calm,Calm,-,N/A,,Clear,0,2013-10-01 17:15:00
1:35 PM,77.7,59.7,54,30.17,10.0,NW,4.6,-,N/A,,Clear,320,2013-10-01 17:35:00
1:55 PM,77.0,59.2,54,30.16,10.0,Calm,Calm,-,N/A,,Clear,0,2013-10-01 17:55:00
2:15 PM,78.8,60.6,54,30.15,10.0,Calm,Calm,-,N/A,,Clear,0,2013-10-01 18:15:00
2:35 PM,78.6,60.3,53,30.14,10.0,Calm,Calm,-,N/A,,Clear,0,2013-10-01 18:35:00
2:55 PM,79.5,60.1,51,30.13,10.0,NNW,4.6,-,N/A,,Clear,330,2013-10-01 18:55:00
3:15 PM,78.8,59.7,52,30.13,10.0,Calm,Calm,-,N/A,,Clear,0,2013-10-01 19:15:00
3:35 PM,79.2,58.8,50,30.12,10.0,East,3.5,-,N/A,,Clear,80,2013-10-01 19:35:00
3:55 PM,79.7,59.2,49,30.12,10.0,Calm,Calm,-,N/A,,Clear,0,2013-10-01 19:55:00
4:15 PM,80.4,60.1,50,30.11,10.0,ENE,4.6,-,N/A,,Clear,70,2013-10-01 20:15:00
4:35 PM,79.9,60.3,51,30.11,10.0,Calm,Calm,-,N/A,,Clear,0,2013-10-01 20:35:00
4:55 PM,79.7,59.7,50,30.11,10.0,NE,5.8,-,N/A,,Clear,40,2013-10-01 20:55:00
5:15 PM,79.7,60.1,51,30.11,10.0,East,3.5,-,N/A,,Clear,100,2013-10-01 21:15:00
5:35 PM,78.8,59.4,51,30.11,10.0,ENE,4.6,-,N/A,,Clear,60,2013-10-01 21:35:00
5:55 PM,78.8,60.3,53,30.12,10.0,Calm,Calm,-,N/A,,Clear,0,2013-10-01 21:55:00
6:15 PM,77.9,60.3,54,30.12,10.0,East,3.5,-,N/A,,Clear,80,2013-10-01 22:15:00
6:35 PM,76.3,61.2,59,30.12,10.0,Calm,Calm,-,N/A,,Clear,0,2013-10-01 22:35:00
6:55 PM,73.4,62.6,69,30.12,10.0,Calm,Calm,-,N/A,,Clear,0,2013-10-01 22:55:00
7:15 PM,70.2,63.7,80,30.12,10.0,Calm,Calm,-,N/A,,Clear,0,2013-10-01 23:15:00
7:35 PM,67.6,63.5,87,30.13,10.0,Calm,Calm,-,N/A,,Clear,0,2013-10-01 23:35:00
7:55 PM,66.4,63.1,89,30.13,10.0,Calm,Calm,-,N/A,,Clear,0,2013-10-01 23:55:00
8:15 PM,64.9,62.8,93,30.14,10.0,Calm,Calm,-,N/A,,Clear,0,2013-10-02 00:15:00
8:35 PM,64.4,62.6,94,30.14,10.0,Calm,Calm,-,N/A,,Clear,0,2013-10-02 00:35:00
8:55 PM,63.0,62.2,97,30.15,10.0,Calm,Calm,-,N/A,,Clear,0,2013-10-02 00:55:00
9:15 PM,62.2,61.7,98,30.16,10.0,Calm,Calm,-,N/A,,Clear,0,2013-10-02 01:15:00
9:35 PM,61.9,61.7,99,30.16,10.0,Calm,Calm,-,N/A,,Clear,0,2013-10-02 01:35:00
9:55 PM,61.7,61.7,100,30.16,10.0,Calm,Calm,-,N/A,,Clear,0,2013-10-02 01:55:00
10:15 PM,60.3,60.3,100,30.17,10.0,Calm,Calm,-,N/A,,Clear,0,2013-10-02 02:15:00
10:35 PM,60.4,60.4,100,30.17,10.0,Calm,Calm,-,N/A,,Clear,0,2013-10-02 02:35:00
10:55 PM,59.4,59.4,100,30.17,7.0,Calm,Calm,-,N/A,,Clear,0,2013-10-02 02:55:00
11:15 PM,59.2,59.2,100,30.17,10.0,Calm,Calm,-,N/A,,Clear,0,2013-10-02 03:15:00
11:35 PM,58.8,58.8,100,30.18,7.0,Calm,Calm,-,N/A,,Clear,0,2013-10-02 03:35:00
11:55 PM,59.0,59.0,100,30.18,10.0,Calm,Calm,-,N/A,,Clear,0,2013-10-02 03:55:00